Location: Berville
(49.1893°N, 2.0748°E)
Time: 18:15:49
(UTC+00:00)

FENGYUN 1C DEB - Pass Details

Date: 07 March 2024
Orbit: 768 x 960 km, 99.0° (Epoch: 12 April)

Event Time Altitude Azimuth Distance (km) Brightness Sun altitude
Exits shadow 22:47:12 13° 284° (WNW) 2,473 ? -42.8°
Drops below altitude 10° 22:49:00 10° 301° (WNW) 2,654 ? -42.9°
Sets 22:53:02 0° 329° (NNW) 3,568 ? -43.2°
